Regional Weather Roundup
Issued by NWS San Angelo, TX

Home | Current Version | Previous Version | Text Only | Print | Product List | Glossary On
Versions: 1 2 3 4 5 6 7 8 9 10 11 12 13 14 15 16 17 18 19 20 21 22 23 24 25 26 27 28 29 30 31 32 33 34 35 36 37 38 39 40 41 42 43 44 45 46 47 48 49 50
000
ASUS44 KSJT 261702
RWRSJT
WEST CENTRAL TEXAS REGIONAL WEATHER ROUNDUP
NATIONAL WEATHER SERVICE SAN ANGELO TX
1200 PM CDT TUE MAY 26 2015

NOTE: "FAIR" INDICATES FEW OR NO CLOUDS BELOW 12,000 FEET WITH NO
SIGNIFICANT WEATHER AND/OR OBSTRUCTIONS TO VISIBILITY.

TXZ049-054-064>066-071>073-076>078-098-099-113-114-127-128-139-140-
154-155-168>170-261800
...LOCATIONS ACROSS WEST CENTRAL TEXAS...

CITY           SKY/WX    TMP DP  RH WIND       PRES   REMARKS
SAN ANGELO     MOSUNNY   84  68  58 SW21G30   29.98F
ABILENE        SUNNY     80  69  69 SW23G35   29.97R
DYESS AFB      MOSUNNY   81  65  58 SW21G26   29.96F
JUNCTION       MOSUNNY   83  66  56 S12G20    30.02R
SWEETWATER     MOSUNNY   80  69  70 S20       30.03S
BROWNWOOD      NOT AVBL
COLEMAN        NOT AVBL
SONORA         NOT AVBL
OZONA          NOT AVBL
BRADY          NOT AVBL
$$

TEXAS PANHANDLE/OKLAHOMA PANHANDLE

CITY           SKY/WX    TMP DP  RH WIND       PRES   REMARKS
AMARILLO       SUNNY     69  53  56 VRB3      29.99R
BORGER         SUNNY     70  55  59 N5        29.98S
CANADIAN       SUNNY     72  59  63 SE5       29.95S
DALHART        SUNNY     71  51  49 N18       30.04R
DUMAS          SUNNY     67  52  59 NE7       30.01R
GUYMON         NOT AVBL
HEREFORD       NOT AVBL
PAMPA          NOT AVBL
PERRYTON       NOT AVBL
$$

SOUTHERN PANHANDLE/SOUTH PLAINS/ROLLING PLAINS

CITY           SKY/WX    TMP DP  RH WIND       PRES   REMARKS
LUBBOCK        MOSUNNY   77  49  37 SW17      30.00R
SNYDER         NOT AVBL
CHILDRESS      SUNNY     75  62  64 SW12      29.95R
SEMINOLE       NOT AVBL
$$

PERMIAN BASIN

CITY           SKY/WX    TMP DP  RH WIND       PRES   REMARKS
MIDLAND        SUNNY     80  61  52 S14       30.02F
ODESSA         SUNNY     79  61  53 S13       30.04S
WINK           SUNNY     82  43  25 CALM      30.02R
$$

FAR WEST/SOUTHWEST MOUNTAINS/TRANS PECOS

CITY           SKY/WX    TMP DP  RH WIND       PRES   REMARKS
ALPINE         NOT AVBL
DRYDEN           N/A     84  68  58 S9G18     29.99F
EL PASO        MOSUNNY   77  38  24 VRB7      30.08F
FORT STOCKTON  SUNNY     81  33  17 CALM      30.04F
GUADALUPE PASS SUNNY     75  38  26 W16       30.17R
MARFA          SUNNY     79  30  17 CALM      30.16R
PECOS          NOT AVBL
$$

DALLAS/FORT WORTH METROPLEX

CITY           SKY/WX    TMP DP  RH WIND       PRES   REMARKS
DFW AIRPORT    DRIZZLE   65  65 100 E5        30.01R FOG
FTW MEACHAM    CLOUDY    69  68  96 E7        30.01R FOG
DAL-EXECUTIVE  CLOUDY    71  67  87 SE7       30.02R
GRAND PRAIRIE  NOT AVBL
ADDISON        NOT AVBL
MESQUITE       CLOUDY    72  66  83 CALM      30.02F
LANCASTER      CLOUDY    71  66  83 CALM      30.03S
$$

NORTH CENTRAL TEXAS

CITY           SKY/WX    TMP DP  RH WIND       PRES   REMARKS
SHRMAN/DENISON CLOUDY    72  66  83 CALM      30.05S
GAINESVILLE    CLOUDY    68  63  83 E10       30.05S
BRIDGEPORT     CLOUDY    68  68 100 E3        30.03R FOG
DENTON         CLOUDY    69  65  86 E9        30.02R
WAXAHACHIE     CLOUDY    73  71  95 S6        30.03S
GRANBURY       NOT AVBL
$$

WESTERN NORTH TEXAS

CITY           SKY/WX    TMP DP  RH WIND       PRES   REMARKS
WICHITA FALLS  MOSUNNY   76  64  66 S15G22    29.95F
VERNON         NOT AVBL
BRECKENRIDGE   NOT AVBL
COMANCHE       CLOUDY    77  73  87 S15G22    30.00F
$$

CENTRAL AND SOUTH CENTRAL TEXAS

CITY           SKY/WX    TMP DP  RH WIND       PRES   REMARKS
AUSTIN/BERGSTM CLOUDY    79  74  84 S12       30.00F
WACO           CLOUDY    79  71  76 SW14      30.00S
HILLSBORO      NOT AVBL
TEMPLE         CLOUDY    77  70  78 S17G24    30.00S
KILLEEN-GRAY   CLOUDY    75  72  91 S12       30.01R
FORT HOOD      CLOUDY    75  71  89 S13       30.00S
GEORGETOWN     CLOUDY    77  72  83 S9        30.00S
LAGO VISTA     CLOUDY    74  73  96 S10       30.03S FOG
SAN MARCOS     PTSUNNY   81  73  78 S16       30.01F
NEW BRAUNFELS  CLOUDY    84  74  71 S13       29.99S
RANDOLPH AFB   PTSUNNY   81  74  79 SE12      30.00F
SAN ANTONIO    PTSUNNY   82  73  74 S10       30.01S
STINSON        CLOUDY    83  74  74 SE13      29.98S
PLEASANTON     NOT AVBL
LA GRANGE      NOT AVBL
GIDDINGS       NOT AVBL
$$

EAST TEXAS

CITY           SKY/WX    TMP DP  RH WIND       PRES   REMARKS
PARIS          CLOUDY    75  64  69 SW6       30.04S
CLARKSVILLE    NOT AVBL
TYLER          MOSUNNY   82  68  62 SW12      30.01R
LONGVIEW       MOSUNNY   83  68  60 SW13      30.01S
PALESTINE      CLOUDY    79  71  74 S9        30.03S
NACOGDOCHES    MOSUNNY   79  70  73 S9        30.04S
$$

TEXAS HILL COUNTRY AND EDWARDS PLATEAU

CITY           SKY/WX    TMP DP  RH WIND       PRES   REMARKS
LLANO          NOT AVBL
HORSESHOE BAY  NOT AVBL
KERRVILLE      PTSUNNY   79  72  78 S14       30.04S
FREDERICKSBRG  NOT AVBL
ROCKSPRINGS    NOT AVBL
HONDO          CLOUDY    83  73  72 SE12      30.01F
UVALDE         MOSUNNY   83  74  74 SE10      29.99F
DEL RIO        PTSUNNY   85  73  67 SE14      29.96S
$$

SOUTHEAST TEXAS

CITY           SKY/WX    TMP DP  RH WIND       PRES   REMARKS
COLLEGE STN    CLOUDY    83  72  69 S12G22    30.01R
CALDWELL       NOT AVBL
CROCKETT       NOT AVBL
BRENHAM        MOSUNNY   84  73  69 S15G22    30.02R
HUNTSVILLE     PTSUNNY   84  71  65 S13G22    30.02S
CONROE         PTSUNNY   82  70  66 S14       30.03R
HOUSTON BUSH   MOSUNNY   83  72  69 S15       30.02R
HOUSTON HOBBY  PTSUNNY   81  71  71 SE16G22   30.03R
PERLAND        CLOUDY    80  70  71 SE12      30.05S
WHARTON        NOT AVBL
$$

THE UPPER TEXAS COAST

CITY           SKY/WX    TMP DP  RH WIND       PRES   REMARKS
ORANGE         MOSUNNY   82  65  57 SE7       30.07R
PORT ARTHUR    SUNNY     84  71  65 SE14      30.04R
GALVESTON      MOSUNNY   81  73  76 SE18      30.06R
ANGLETON       CLOUDY    77  72  84 SE17      30.03S
BAY CITY       NOT AVBL
$$

TEXAS COASTAL BEND, RIO GRANDE PLAINS DEEP SOUTH TEXAS

CITY           SKY/WX    TMP DP  RH WIND       PRES   REMARKS
VICTORIA       MOSUNNY   85  76  74 S20G26    30.00S
BEEVILLE       FAIR      85  78  78 S20       29.98S
ROCKPORT       MOSUNNY   88  77  69 SE16      29.98S
PORT ARANSAS   CLOUDY    83  77  83 SE13G20   29.99R
PORT LAVACA    PTSUNNY   83  77  82 SE17      30.00S
CORPUS CHRISTI CLOUDY    85  76  74 SE14G22   29.97F
KINGSVILLE NAS PTSUNNY   85  79  82 SE13G20   29.96F
COTULLA        MOSUNNY   87  74  64 SE10      29.96F
LAREDO         CLOUDY    83  76  79 E9        29.97S
BROWNSVILLE    PTSUNNY   89  76  65 SE16      29.96S
PORT ISABEL    PTSUNNY   86  76  71 SE18      29.95S
HEBBRONVILLE   NOT AVBL
MCALLEN        MOSUNNY   90  75  61 SE16G25   29.94S
WESLACO        NOT AVBL
FALFURRIAS     CLOUDY    87  75  67 SE8       29.95S
EDINBURG       NOT AVBL
$$


USA.gov is the U.S. government's official web portal to all federal, state and local government web resources and services.